| time (UTC) | temp C | wind direction | speed KPH | gust KPH | rain 1hr cm | rain 24hr cm | rain mn cm | humidity % | barometer mb |
| 20260507224516 | 16 | 176 | 0.0 | 4.8 | 0.00 | 0.00 | 0.00 | 76 | 1016.9 |
| 20260507223517 | 16 | 182 | 1.6 | 6.4 | 0.00 | 0.00 | 0.00 | 76 | 1017.1 |
| 20260507222518 | 16 | 203 | 1.6 | 6.4 | 0.00 | 0.00 | 0.00 | 76 | 1017.0 |
| 20260507221536 | 16 | 213 | 0.0 | 1.6 | 0.00 | 0.00 | 0.00 | 76 | 1017.0 |
| 20260507220536 | 16 | 214 | 0.0 | 1.6 | 0.00 | 0.00 | 0.00 | 76 | 1017.0 |
| 20260507215517 | 16 | 214 | 0.0 | 1.6 | 0.00 | 0.00 | 0.00 | 76 | 1017.1 |
| 20260507214517 | 16 | 216 | 0.0 | 3.2 | 0.00 | 0.00 | 0.00 | 76 | 1017.1 |
| 20260507213516 | 16 | 213 | 0.0 | 4.8 | 0.00 | 0.00 | 0.00 | 76 | 1017.2 |
| 20260507212516 | 16 | 219 | 0.0 | 4.8 | 0.00 | 0.00 | 0.00 | 76 | 1017.2 |
| 20260507211516 | 17 | 229 | 3.2 | 6.4 | 0.00 | 0.00 | 0.00 | 76 | 1017.4 |
| 20260507210517 | 17 | 211 | 1.6 | 6.4 | 0.00 | 0.00 | 0.00 | 76 | 1017.4 |
| 20260507205516 | 17 | 208 | 3.2 | 8.0 | 0.00 | 0.00 | 0.00 | 76 | 1017.6 |
| 20260507204535 | 17 | 223 | 4.8 | 8.0 | 0.00 | 0.00 | 0.00 | 76 | 1017.7 |
| 20260507203515 | 17 | 268 | 4.8 | 6.4 | 0.00 | 0.00 | 0.00 | 76 | 1017.5 |
| 20260507202516 | 17 | 354 | 4.8 | 8.0 | 0.00 | 0.00 | 0.00 | 76 | 1017.5 |
| 20260507201515 | 17 | 0 | 4.8 | 12.9 | 0.00 | 0.00 | 0.00 | 76 | 1017.6 |
| 20260507200515 | 17 | 359 | 4.8 | 8.0 | 0.00 | 0.00 | 0.00 | 76 | 1017.5 |
| 20260507195515 | 17 | 359 | 4.8 | 8.0 | 0.00 | 0.00 | 0.00 | 75 | 1017.3 |
| 20260507194515 | 18 | 360 | 3.2 | 6.4 | 0.00 | 0.00 | 0.00 | 74 | 1017.3 |
| 20260507193515 | 18 | 358 | 1.6 | 4.8 | 0.00 | 0.00 | 0.00 | 73 | 1017.3 |
| 20260507192515 | 18 | 0 | 0.0 | 1.6 | 0.00 | 0.00 | 0.00 | 73 | 1017.3 |
| 20260507191535 | 18 | 0 | 0.0 | 4.8 | 0.00 | 0.00 | 0.00 | 72 | 1017.2 |
| 20260507190537 | 18 | 356 | 1.6 | 6.4 | 0.00 | 0.00 | 0.00 | 72 | 1017.1 |
| 20260507185517 | 18 | 10 | 1.6 | 6.4 | 0.00 | 0.00 | 0.00 | 72 | 1016.9 |
| 20260507184515 | 18 | 0 | 1.6 | 9.7 | 0.00 | 0.00 | 0.00 | 72 | 1016.7 |
| 20260507183517 | 18 | 0 | 0.0 | 4.8 | 0.00 | 0.00 | 0.00 | 71 | 1016.5 |
| 20260507182516 | 18 | 0 | 0.0 | 1.6 | 0.00 | 0.00 | 0.00 | 71 | 1016.4 |
| 20260507181515 | 18 | 360 | 1.6 | 3.2 | 0.00 | 0.00 | 0.00 | 71 | 1016.5 |
| 20260507180515 | 19 | 354 | 1.6 | 4.8 | 0.00 | 0.00 | 0.00 | 70 | 1016.4 |
| 20260507175516 | 19 | 0 | 0.0 | 1.6 | 0.00 | 0.00 | 0.00 | 70 | 1016.3 |
| 20260507174515 | 19 | 6 | 1.6 | 6.4 | 0.00 | 0.00 | 0.00 | 69 | 1016.5 |
| 20260507173515 | 20 | 2 | 1.6 | 4.8 | 0.00 | 0.00 | 0.00 | 69 | 1016.4 |
| 20260507172515 | 20 | 0 | 3.2 | 9.7 | 0.00 | 0.00 | 0.00 | 68 | 1016.5 |
| 20260507171516 | 20 | 0 | 1.6 | 6.4 | 0.00 | 0.00 | 0.00 | 69 | 1016.5 |
| 20260507170538 | 20 | 0 | 3.2 | 6.4 | 0.00 | 0.00 | 0.00 | 69 | 1016.6 |
| 20260507165515 | 20 | 0 | 3.2 | 9.7 | 0.00 | 0.00 | 0.00 | 68 | 1016.5 |
| 20260507164517 | 20 | 0 | 3.2 | 8.0 | 0.00 | 0.00 | 0.00 | 68 | 1016.5 |
| 20260507163515 | 21 | 0 | 3.2 | 8.0 | 0.00 | 0.00 | 0.00 | 67 | 1016.4 |
| 20260507162536 | 21 | 0 | 4.8 | 12.9 | 0.00 | 0.00 | 0.00 | 66 | 1016.3 |
| 20260507161516 | 21 | 0 | 4.8 | 16.1 | 0.00 | 0.00 | 0.00 | 66 | 1016.3 |
| 20260507160537 | 21 | 0 | 8.0 | 16.1 | 0.00 | 0.00 | 0.00 | 66 | 1016.2 |
| 20260507155515 | 21 | 0 | 4.8 | 14.5 | 0.00 | 0.00 | 0.00 | 65 | 1016.1 |
| 20260507154515 | 22 | 0 | 11.3 | 19.3 | 0.00 | 0.00 | 0.00 | 63 | 1016.1 |
| 20260507153515 | 22 | 31 | 6.4 | 25.7 | 0.00 | 0.00 | 0.00 | 61 | 1016.3 |
| 20260507152515 | 22 | 42 | 16.1 | 25.7 | 0.00 | 0.00 | 0.00 | 60 | 1016.0 |
| 20260507151518 | 22 | 2 | 16.1 | 30.6 | 0.00 | 0.00 | 0.00 | 58 | 1016.0 |
| 20260507150518 | 23 | 30 | 4.8 | 22.5 | 0.00 | 0.00 | 0.00 | 58 | 1016.2 |
| 20260507145519 | 23 | 16 | 6.4 | 16.1 | 0.00 | 0.00 | 0.00 | 57 | 1016.0 |
| 20260507144515 | 23 | 360 | 6.4 | 14.5 | 0.00 | 0.00 | 0.00 | 55 | 1016.2 |
| 20260507143515 | 23 | 17 | 6.4 | 16.1 | 0.00 | 0.00 | 0.00 | 53 | 1016.2 |
| 20260507142515 | 23 | 15 | 4.8 | 14.5 | 0.00 | 0.00 | 0.00 | 53 | 1016.3 |
| 20260507141516 | 24 | 9 | 4.8 | 14.5 | 0.00 | 0.00 | 0.00 | 52 | 1016.4 |
| 20260507140516 | 24 | 60 | 6.4 | 14.5 | 0.00 | 0.00 | 0.00 | 50 | 1016.1 |
| 20260507135518 | 24 | 19 | 4.8 | 12.9 | 0.00 | 0.00 | 0.00 | 49 | 1016.3 |
| 20260507134517 | 25 | 17 | 6.4 | 16.1 | 0.00 | 0.00 | 0.00 | 48 | 1016.3 |
| 20260507133516 | 25 | 14 | 4.8 | 12.9 | 0.00 | 0.00 | 0.00 | 46 | 1016.3 |
| 20260507132515 | 25 | 7 | 4.8 | 9.7 | 0.00 | 0.00 | 0.00 | 45 | 1016.1 |
| 20260507131516 | 25 | 37 | 6.4 | 12.9 | 0.00 | 0.00 | 0.00 | 45 | 1016.3 |
| 20260507130515 | 25 | 42 | 4.8 | 12.9 | 0.00 | 0.00 | 0.00 | 45 | 1016.3 |
| 20260507125518 | 24 | 4 | 3.2 | 9.7 | 0.00 | 0.00 | 0.00 | 47 | 1016.5 |
| 20260507124516 | 23 | 15 | 4.8 | 12.9 | 0.00 | 0.00 | 0.00 | 50 | 1016.7 |
| 20260507123516 | 23 | 359 | 3.2 | 6.4 | 0.00 | 0.00 | 0.00 | 52 | 1016.8 |
| 20260507122517 | 23 | 18 | 3.2 | 8.0 | 0.00 | 0.00 | 0.00 | 50 | 1016.8 |
| 20260507121515 | 23 | 2 | 3.2 | 9.7 | 0.00 | 0.00 | 0.00 | 46 | 1016.9 |
| 20260507120515 | 23 | 22 | 4.8 | 9.7 | 0.00 | 0.00 | 0.00 | 45 | 1017.0 |
| 20260507115517 | 23 | 10 | 3.2 | 14.5 | 0.00 | 0.00 | 0.00 | 44 | 1017.0 |
| 20260507114538 | 23 | 17 | 4.8 | 12.9 | 0.00 | 0.00 | 0.00 | 45 | 1017.0 |
| 20260507113516 | 23 | 24 | 4.8 | 11.3 | 0.00 | 0.00 | 0.00 | 46 | 1017.1 |
| 20260507112516 | 23 | 38 | 1.6 | 8.0 | 0.00 | 0.00 | 0.00 | 47 | 1017.2 |
| 20260507111517 | 22 | 38 | 4.8 | 8.0 | 0.00 | 0.00 | 0.00 | 44 | 1017.4 |
| 20260507110515 | 22 | 357 | 3.2 | 6.4 | 0.00 | 0.00 | 0.00 | 48 | 1017.5 |
| 20260507105518 | 23 | 7 | 1.6 | 6.4 | 0.00 | 0.00 | 0.00 | 48 | 1017.5 |
| 20260507104518 | 23 | 26 | 6.4 | 9.7 | 0.00 | 0.00 | 0.00 | 45 | 1017.4 |
| 20260507103518 | 23 | 16 | 3.2 | 8.0 | 0.00 | 0.00 | 0.00 | 47 | 1017.2 |
| 20260507102537 | 22 | 1 | 4.8 | 14.5 | 0.00 | 0.00 | 0.00 | 50 | 1017.1 |
| 20260507101517 | 22 | 10 | 4.8 | 12.9 | 0.00 | 0.00 | 0.00 | 55 | 1017.0 |
| 20260507100515 | 22 | 344 | 3.2 | 8.0 | 0.00 | 0.00 | 0.00 | 58 | 1017.2 |
| 20260507095516 | 22 | 355 | 1.6 | 4.8 | 0.00 | 0.00 | 0.00 | 58 | 1017.2 |
| 20260507094515 | 21 | 0 | 1.6 | 4.8 | 0.00 | 0.00 | 0.00 | 63 | 1017.2 |
| 20260507093515 | 21 | 27 | 1.6 | 6.4 | 0.00 | 0.00 | 0.00 | 64 | 1017.4 |
| 20260507092517 | 21 | 13 | 1.6 | 6.4 | 0.00 | 0.00 | 0.00 | 64 | 1017.4 |
| 20260507091518 | 21 | 11 | 3.2 | 6.4 | 0.00 | 0.00 | 0.00 | 63 | 1017.3 |
| 20260507090538 | 21 | 10 | 3.2 | 9.7 | 0.00 | 0.00 | 0.00 | 63 | 1017.2 |
| 20260507085515 | 21 | 311 | 1.6 | 8.0 | 0.00 | 0.00 | 0.00 | 63 | 1017.0 |
| 20260507084515 | 21 | 347 | 3.2 | 8.0 | 0.00 | 0.00 | 0.00 | 62 | 1016.9 |
| 20260507083518 | 21 | 352 | 3.2 | 8.0 | 0.00 | 0.00 | 0.00 | 63 | 1017.0 |
| 20260507082517 | 21 | 39 | 3.2 | 8.0 | 0.00 | 0.00 | 0.00 | 63 | 1016.9 |
| 20260507081517 | 21 | 336 | 1.6 | 4.8 | 0.00 | 0.00 | 0.00 | 64 | 1017.0 |
| 20260507080517 | 20 | 350 | 1.6 | 6.4 | 0.00 | 0.00 | 0.00 | 64 | 1016.9 |
| 20260507075537 | 20 | 334 | 3.2 | 8.0 | 0.00 | 0.00 | 0.00 | 65 | 1017.0 |
| 20260507074518 | 20 | 360 | 3.2 | 8.0 | 0.00 | 0.00 | 0.00 | 66 | 1016.9 |
| 20260507073516 | 19 | 318 | 3.2 | 8.0 | 0.00 | 0.00 | 0.00 | 66 | 1016.7 |
| 20260507072538 | 19 | 304 | 1.6 | 3.2 | 0.00 | 0.00 | 0.00 | 66 | 1016.6 |
| 20260507071515 | 18 | 337 | 1.6 | 4.8 | 0.00 | 0.00 | 0.00 | 68 | 1016.8 |
| 20260507070516 | 18 | 306 | 3.2 | 9.7 | 0.00 | 0.00 | 0.00 | 68 | 1016.9 |
| 20260507065516 | 18 | 288 | 1.6 | 4.8 | 0.00 | 0.00 | 0.00 | 69 | 1017.0 |
| 20260507064515 | 18 | 0 | 3.2 | 4.8 | 0.00 | 0.00 | 0.00 | 69 | 1017.1 |
| 20260507063518 | 18 | 304 | 1.6 | 4.8 | 0.00 | 0.00 | 0.00 | 67 | 1017.2 |
| 20260507062517 | 18 | 305 | 0.0 | 3.2 | 0.00 | 0.00 | 0.00 | 68 | 1017.1 |
| 20260507061516 | 17 | 360 | 1.6 | 4.8 | 0.00 | 0.00 | 0.00 | 69 | 1017.1 |
| 20260507060517 | 17 | 0 | 1.6 | 3.2 | 0.00 | 0.00 | 0.00 | 71 | 1017.0 |
| 20260507055517 | 17 | 52 | 0.0 | 4.8 | 0.00 | 0.00 | 0.00 | 73 | 1016.8 |
| 20260507054515 | 16 | 0 | 1.6 | 4.8 | 0.00 | 0.00 | 0.00 | 73 | 1016.8 |
| 20260507053518 | 16 | 0 | 1.6 | 4.8 | 0.00 | 0.00 | 0.00 | 73 | 1016.8 |
| 20260507052518 | 16 | 0 | 3.2 | 8.0 | 0.00 | 0.00 | 0.00 | 73 | 1016.6 |
| 20260507051517 | 16 | 0 | 1.6 | 6.4 | 0.00 | 0.00 | 0.00 | 74 | 1016.5 |
| 20260507050518 | 15 | 0 | 3.2 | 4.8 | 0.00 | 0.00 | 0.00 | 74 | 1016.3 |
| 20260507045517 | 15 | 0 | 3.2 | 4.8 | 0.00 | 0.00 | 0.00 | 73 | 1016.3 |
| 20260507044517 | 15 | 0 | 1.6 | 4.8 | 0.00 | 0.00 | 0.00 | 73 | 1016.2 |
| 20260507043519 | 15 | 0 | 1.6 | 4.8 | 0.00 | 0.00 | 0.00 | 72 | 1016.1 |
| 20260507042517 | 15 | 0.0 | 0.0 | 0.00 | 0.00 | 0.00 | 71 | 1016.2 | |
| 20260507041516 | 14 | 1 | 1.6 | 3.2 | 0.00 | 0.00 | 0.00 | 71 | 1016.1 |
| 20260507040538 | 14 | 1 | 1.6 | 6.4 | 0.00 | 0.00 | 0.00 | 71 | 1016.0 |
| 20260507035517 | 13 | 360 | 3.2 | 9.7 | 0.00 | 0.00 | 0.00 | 70 | 1016.0 |
| 20260507034517 | 14 | 0 | 3.2 | 8.0 | 0.00 | 0.00 | 0.00 | 69 | 1015.9 |
| 20260507033516 | 14 | 2 | 1.6 | 4.8 | 0.00 | 0.00 | 0.00 | 71 | 1015.9 |
| 20260507032518 | 14 | 1 | 1.6 | 4.8 | 0.00 | 0.00 | 0.00 | 73 | 1015.9 |
| 20260507031517 | 13 | 2 | 3.2 | 12.9 | 0.00 | 0.00 | 0.00 | 73 | 1015.9 |
| 20260507030538 | 13 | 0 | 4.8 | 14.5 | 0.00 | 0.00 | 0.00 | 74 | 1015.8 |
| 20260507025516 | 13 | 0 | 6.4 | 12.9 | 0.00 | 0.00 | 0.00 | 73 | 1015.8 |
| 20260507024536 | 13 | 360 | 4.8 | 9.7 | 0.00 | 0.00 | 0.00 | 73 | 1015.8 |
| 20260507023517 | 13 | 0 | 3.2 | 9.7 | 0.00 | 0.00 | 0.00 | 74 | 1015.7 |
| 20260507022517 | 13 | 360 | 6.4 | 12.9 | 0.00 | 0.00 | 0.00 | 73 | 1015.7 |
| 20260507021638 | 13 | 0 | 3.2 | 8.0 | 0.00 | 0.00 | 0.00 | 72 | 1015.6 |
| 20260507020516 | 13 | 1 | 3.2 | 8.0 | 0.00 | 0.00 | 0.00 | 72 | 1015.7 |
| 20260507015518 | 13 | 360 | 6.4 | 12.9 | 0.00 | 0.00 | 0.00 | 71 | 1015.6 |
| 20260507014518 | 14 | 360 | 4.8 | 9.7 | 0.00 | 0.00 | 0.00 | 71 | 1015.3 |
| 20260507013517 | 13 | 360 | 6.4 | 12.9 | 0.00 | 0.00 | 0.00 | 72 | 1015.1 |
| 20260507012516 | 13 | 0 | 9.7 | 16.1 | 0.00 | 0.00 | 0.00 | 70 | 1015.1 |
| 20260507011538 | 15 | 0 | 6.4 | 12.9 | 0.00 | 0.00 | 0.00 | 67 | 1015.0 |
| 20260507010516 | 15 | 0 | 3.2 | 8.0 | 0.00 | 0.00 | 0.00 | 67 | 1015.0 |
| 20260507005516 | 15 | 0 | 3.2 | 9.7 | 0.00 | 0.00 | 0.00 | 67 | 1015.1 |
| 20260507004517 | 15 | 360 | 4.8 | 12.9 | 0.00 | 0.00 | 0.00 | 67 | 1015.0 |
| 20260507003518 | 14 | 0 | 4.8 | 12.9 | 0.00 | 0.00 | 0.00 | 69 | 1015.0 |
| 20260507002518 | 14 | 0 | 4.8 | 14.5 | 0.00 | 0.00 | 0.00 | 69 | 1015.0 |
| 20260507001538 | 14 | 0 | 3.2 | 8.0 | 0.00 | 0.00 | 0.00 | 69 | 1014.9 |
| 20260507000518 | 15 | 0 | 1.6 | 6.4 | 0.00 | 0.00 | 0.00 | 68 | 1015.0 |
| 20260506235558 | 15 | 0 | 3.2 | 8.0 | 0.00 | 0.00 | 0.00 | 68 | 1015.2 |
| 20260506234516 | 15 | 0 | 3.2 | 9.7 | 0.00 | 0.00 | 0.00 | 68 | 1015.3 |
| 20260506233538 | 14 | 360 | 9.7 | 16.1 | 0.00 | 0.00 | 0.00 | 69 | 1015.5 |
| 20260506232518 | 15 | 0 | 8.0 | 16.1 | 0.00 | 0.00 | 0.00 | 68 | 1015.6 |
| 20260506231518 | 15 | 0 | 6.4 | 14.5 | 0.00 | 0.00 | 0.00 | 67 | 1015.6 |
| 20260506230538 | 15 | 360 | 6.4 | 14.5 | 0.00 | 0.00 | 0.00 | 67 | 1015.6 |
| 20260506225516 | 15 | 360 | 6.4 | 9.7 | 0.00 | 0.00 | 0.00 | 66 | 1015.6 |